Flight Track Log - Related Links

Times and Time Zones

All times are in EDT time to prevent confusion due to time zone crossing. See the KAP46 flight status page for this flight to view local times or setup timezone preferences in your user account.

Time Position Orientation Groundspeed Altitude Reporting Facility
EDT Latitude Longitude Course Direction KTS MPH feet Rate Location/Type
Thu 01:15:25 PM 44.7644 -74.6942 167° South 51 59 7,000  Level Boston Center
Thu 01:16:25 PM 44.7064 -74.7856 228° Southwest 173 199 4,900 -793 Descending Boston Center
Thu 01:17:26 PM 44.6753 -74.7725 163° South 132 152 5,400 545 Climbing Boston Center
Thu 01:18:26 PM 44.6403 -74.7508 156° South 127 146 6,000 595 Climbing Boston Center
Thu 01:19:27 PM 44.6072 -74.7319 158° South 127 146 6,600 496 Climbing Boston Center
Thu 01:20:00 PM 44.7867 -74.7622 167° South  Level FlightAware Approximate
Thu 01:20:27 PM 44.5722 -74.7161 162° South 127 146 7,000  Level Boston Center
Thu 01:21:24 PM 44.5331 -74.6969 161° South 137 158 7,000  Level Boston Center
Thu 01:22:27 PM 44.4897 -74.6722 158° South 155 178 7,000  Level Boston Center
Thu 01:23:25 PM 44.4486 -74.6503 159° South 160 184 7,000  Level Boston Center
Thu 01:24:26 PM 44.4072 -74.6283 159° South 160 184 7,000  Level Boston Center
Thu 01:25:27 PM 44.3681 -74.6094 161° South 160 184 7,000  Level Boston Center
Thu 01:26:25 PM 44.3267 -74.5906 162° South 165 190 7,000  Level Boston Center
Thu 01:27:25 PM 44.2833 -74.5658 158° South 165 190 7,000  Level Boston Center
Thu 01:28:26 PM 44.2442 -74.5469 161° South 165 190 7,000  Level Boston Center
Thu 01:29:27 PM 44.2008 -74.5250 160° South 165 190 7,000  Level Boston Center
Thu 01:30:27 PM 44.1575 -74.5033 160° South 165 190 7,000  Level Boston Center
Thu 01:31:24 PM 44.1161 -74.4817 159° South 165 190 7,000  Level Boston Center
Thu 01:32:38 PM 44.0728 -74.4572 158° South 165 190 7,000 45 Level Boston Center
Thu 01:33:38 PM 44.0231 -74.4353 162° South 165 190 7,100  Climbing Boston Center
Thu 01:34:38 PM 43.9817 -74.4164 162° South 165 190 7,000 -50 Descending Boston Center
Thu 01:35:39 PM 43.9383 -74.3919 158° South 165 190 7,000  Level Boston Center
Thu 01:36:37 PM 43.8950 -74.3706 160° South 165 190 7,000  Level Boston Center
Thu 01:37:38 PM 43.8536 -74.3489 159° South 165 190 7,000  Level Boston Center
Thu 01:38:50 PM 43.8103 -74.3275 160° South 165 190 7,000  Level Boston Center
Thu 01:39:51 PM 43.7567 -74.3028 162° South 165 190 7,000  Level Boston Center
Thu 01:40:51 PM 43.7131 -74.2814 160° South 165 190 7,000  Level Boston Center
Thu 01:41:49 PM 43.6717 -74.2600 160° South 165 190 7,000  Level Boston Center
Thu 01:42:49 PM 43.6283 -74.2356 158° South 165 190 7,000  Level Boston Center
Thu 01:43:50 PM 43.5828 -74.2142 161° South 165 190 7,000  Level Boston Center
Thu 01:44:50 PM 43.5414 -74.1931 160° South 165 190 7,000 60 Level Boston Center
Thu 01:45:30 PM 43.5106 -74.1750 157° South 168 193 7,100 48 Climbing Boston Center
Thu 01:46:54 PM 43.4464 -74.1472 163° South 162 186 7,100 -43 Level Boston Center
Thu 01:47:49 PM 43.4133 -74.1292 158° South 165 190 7,000  Descending Boston Center
Thu 01:48:49 PM 43.3658 -74.1050 160° South 165 190 7,100 50 Climbing Boston Center
Thu 01:49:49 PM 43.3283 -74.0869 161° South 165 190 7,100 -149 Level Boston Center
Thu 01:50:50 PM 43.2831 -74.0628 159° South 165 190 6,800 -393 Descending Boston Center
Thu 01:51:51 PM 43.2394 -74.0447 163° South 170 196 6,300 -455 Descending Boston Center
Thu 01:53:02 PM 43.1794 -74.0147 160° South 175 201 5,800 -429 Descending Boston Center
Thu 01:53:57 PM 43.1400 -73.9964 161° South 176 203 5,400 -443 Descending Boston Center
Thu 01:55:04 PM 43.0861 -73.9697 160° South 173 199 4,900 -645 Descending Boston Center
Thu 01:55:58 PM 43.0447 -73.9486 160° South 174 200 4,100 -800 Descending Boston Center
Thu 01:56:49 PM 43.0056 -73.9278 159° South 166 191 3,500 -508 Descending Boston Center
Thu 01:57:56 PM 42.9578 -73.9039 160° South 174 200 3,100 -198 Descending Boston Center
Thu 01:58:50 PM 42.9186 -73.8861 162° South 160 184 3,100 -209 Level Boston Center
Thu 01:59:51 PM 42.8833 -73.8625 154° Southeast 155 178 2,700 -567 Descending Boston Center
Thu 02:00:57 PM 42.8442 -73.8247 145° Southeast 152 175 1,900 -709 Descending Boston Center
Thu 02:01:58 PM 42.8089 -73.8100 163° South 117 135 1,200 -541 Descending Boston Center
Thu 02:02:59 PM 42.7778 -73.8092 179° South 96 110 800 -393 Descending Boston Center

Login

Don't have an account? Register now (free) for customized features, flight alerts, and more!